Preview of NWS' New Version of Forecast
This preview is not operational and should not be used for support decisions.

Regional Weather Roundup (RWR)

Issued by Gray - Portland, ME (GYX)

                            
000
ASUS41 KGYX 220910
RWRGYX
WEATHER ROUNDUP FOR MAINE AND NEW HAMPSHIRE
NATIONAL WEATHER SERVICE GRAY ME
500 AM EDT MON JUL 22 2019

MEZ002-005-006-010-012-015-018-020-021-024-026-027-029-221000-
MAINE
  
CITY           SKY/WX    TMP DP  RH WIND       PRES   REMARKS
PORTLAND       FAIR      68  63  84 CALM      29.84R                  
SANFORD        FAIR      69  64  84 NW6       29.85R                  
BAR HARBOR     FAIR      64  64 100 S3        29.83R                  
WISCASSET      MOCLDY    63  62  97 CALM      29.86R                  
ROCKLAND       FAIR      64  63  96 CALM      29.84R                  
FRYEBURG       FAIR      65  61  87 W3        29.87R                  
LEWISTONAUBURN FAIR      67  63  87 CALM      29.86R                  
AUGUSTA        CLOUDY    66  62  87 NW6       29.86R                  
WATERVILLE     FAIR      62  61  96 CALM      29.84R                  
BANGOR         FAIR      63  62  97 CALM      29.84R                  
GREENVILLE       N/A     62  57  83 NW7       29.86R                  
MILLINOCKET    MOCLDY    63  61  93 CALM      29.85R                  
HOULTON        FOG       55  54  96 CALM      29.82R VSB 1/2          
PRESQUE ISLE   FAIR      54  53  97 CALM      29.84R                  
FRENCHVILLE    FAIR      55  52  89 NW5       29.83R                  
CARIBOU        FAIR      60  54  80 VRB3      29.82R                  
$$

NHZ002-005-008-009-011-012-014-221000-
NEW HAMPSHIRE
  
CITY           SKY/WX    TMP DP  RH WIND       PRES   REMARKS
PORTSMOUTH     MOCLDY    70  63  78 W3        29.83R                  
ROCHESTER      FAIR      67  61  81 NW7       29.85R                  
NASHUA         FAIR      69  68  96 NW5       29.86R                  
MANCHESTER     FAIR      73  65  75 CALM      29.85R                  
CONCORD        FAIR      65  62  90 CALM      29.87R                  
LACONIA        FAIR      66  64  93 SW5       29.89R                  
PLYMOUTH       FAIR      64  62  91 E5        29.88R                  
BERLIN         MOCLDY    56  53  90 CALM      29.91R FOG              
WHITEFIELD     FAIR      57  55  93 CALM      29.91R                  
JAFFREY        FAIR      66  63  90 CALM      29.91R                  
KEENE          FAIR      65  65 100 N3        29.88S                  
LEBANON        FAIR      64  60  87 CALM      29.89R                  
MT WASHINGTON  FOG       48  48 100 NW31        N/A  VSB 0            
$$

VTZ005-007-008-221000-
VERMONT
  
CITY           SKY/WX    TMP DP  RH WIND       PRES   REMARKS
ST JOHNSBURY     N/A     62  61  96 MISG      29.90R                  
MONTPELIER     FOG       62  62 100 W3        29.96R VSB 1/4          
BURLINGTON     MOCLDY    68  60  75 N7        29.91R                  
$$

MAZ007-012-024-CTZ003-RIZ002-NYZ038-NYZ072-221000-
SOUTHERN NEW ENGLAND AND NY
  
CITY           SKY/WX    TMP DP  RH WIND       PRES   REMARKS
BOSTON         MOCLDY    80  65  59 NW9       29.83R                  
WORCESTER      FAIR      71  61  70 NW6       29.88S                  
NANTUCKET      FAIR      71  68  90 W5        29.82R                  
PROVIDENCE     FAIR      77  64  64 N9        29.83                   
HARTFORD       MOCLDY    68  60  75 NE7       29.82F                  
ALBANY         FAIR      69  58  67 E6        29.87F                  
NEW YORK CITY  FAIR      81  68  64 NE3       29.83S                  
$$

ANZ081-ANZ082-ANZ150-NHZ014-MEZ023>029-221000-
COASTAL MARINE OBSERVATIONS
  
STATION/POSITION TIME  TEMP    WIND        PRES    WAVE
                       AIR SEA DIR/SP/G            HT/PER
                 (UTC) (F)     (DEG/KT/KT) (MB)    (FT/S)
ISLE OF SHOALS   0800   74     310/ 10/ 10 1009.0R
CASHES LEDGE BUO 0850   67 60  100/  2/  2 1010.0R   2/ 6
GEORGES BANK BUO 0850   61 60  290/  4/ 10 1010.7R   3/ 5
$$

.............KEY..............
   WCI - WIND CHILL
   TC  - TEMPERATURE IN CELSIUS
   VSB - VISIBILITY IN MILES
   HX  - HEAT INDEX
   FAIR- INDICATES FEW OR NO CLOUDS BELOW 12,000 FT, WITH NO 
         SIGNIFICANT WEATHER AND/OR OBSTRUCTIONS TO VISIBILITY.